SNORRE B OILP current weather conditions

sailwx.info

Wind from 210 at 13 knots

Air temperature 4.0° C
Visibility: greater than 5.4 NM
Dewpoint 1.0° C

Last reported at 2015-Mar-30 09:20 UTC.
Time now 2015-Mar-30 10:37 UTC

Location: N 61°32' E 002°13'.
View on Google Maps.

See reports from other nearby stations

  
Tides and Currents Weather Stations Pressure Air Temp Water Temp Dewpoint Dewpoint Depression Visibility Wind Speed Wind Dir Waves Ship Positions
date/time (UTC)wind fromknots sea level pressurealtimeterstation pressurevisibilityair tempwater tempwave heightnotes
2015-Mar-30 09:20 210 13 5.4 4.0
2015-Mar-30 08:50 220 20 5.4 4.0 Light drizzle.
2015-Mar-30 08:20 220 17 5.4 5.0
2015-Mar-30 07:50 170 13 5.4 5.0
2015-Mar-30 07:20 170 3 5.4 4.0 Light rain showers.
2015-Mar-30 06:50 190 9 5.4 5.0 Light drizzle.
2015-Mar-30 06:20 080 3 5.4 5.0
2015-Mar-30 05:50 100 4 5.4 5.0
2015-Mar-30 05:20 130 5 5.4 5.0
2015-Mar-30 04:50 200 4 5.4 5.0
2015-Mar-30 04:20 180 4 5.4 5.0
2015-Mar-30 03:50 150 3 5.4 4.0
2015-Mar-30 03:20 5.4 4.0
2015-Mar-30 02:50 330 5 5.4 4.0
2015-Mar-30 02:20 140 3 5.4 4.0
2015-Mar-30 01:50 140 3 5.4 4.0
2015-Mar-30 01:20 140 5 5.4 4.0
2015-Mar-30 00:50 140 5 5.4 4.0
2015-Mar-30 00:20 120 5 5.4 4.0
2015-Mar-29 23:50 130 7 5.4 4.0
2015-Mar-29 23:20 100 2 5.4 4.0
2015-Mar-29 22:50 5.4 4.0
2015-Mar-29 22:20 110 1 5.4 4.0
2015-Mar-29 21:50 050 3 5.4 4.0
2015-Mar-29 21:20 030 3 5.4 4.0
2015-Mar-29 20:50 310 4 5.4 4.0
2015-Mar-29 20:20 310 7 5.4 4.0
2015-Mar-29 19:50 030 9 5.4 4.0
2015-Mar-29 19:20 010 9 5.4 4.0
2015-Mar-29 18:50 010 9 5.4 4.0
2015-Mar-29 18:20 260 4 5.4 5.0
2015-Mar-29 17:50 220 4 5.4 5.0
2015-Mar-29 17:20 5.4 6.0
2015-Mar-29 16:50 030 3 5.4 4.0
2015-Mar-29 16:20 030 9 5.4 3.0 Light snow showers.
2015-Mar-29 15:50 280 4 gusting 19 5.4 6.0
2015-Mar-29 15:20 270 4 5.4 7.0
2015-Mar-29 14:50 270 4 5.4 7.0
2015-Mar-29 14:20 300 7 5.4 6.0
2015-Mar-29 13:50 290 8 5.4 6.0
2015-Mar-29 13:20 280 9 5.4 6.0
2015-Mar-29 12:50 290 5 5.4 5.0
2015-Mar-29 12:20 300 6 5.4 5.0
2015-Mar-29 11:50 300 6 5.4 5.0
2015-Mar-29 11:20 290 8 5.4 3.0 Light rain showers.
2015-Mar-29 10:50 250 4 5.4 5.0
2015-Mar-29 10:20 270 5 5.4 4.0
2015-Mar-29 09:50 280 10 gusting 20 3.2 3.0 Rain showers.
2015-Mar-29 09:20 260 12 5.4 5.0
2015-Mar-29 08:50 290 20 5.4 4.0 Light rain showers.
2015-Mar-29 08:20 260 11 5.4 5.0 Light rain showers.
2015-Mar-29 07:50 270 18 5.4 5.0 Light rain showers.
2015-Mar-29 07:20 270 17 5.4 5.0
2015-Mar-29 06:50 280 18 5.4 5.0 Light rain showers.
2015-Mar-29 06:20 270 20 5.4 5.0
2015-Mar-29 05:50 270 22 5.4 5.0 Light rain showers.
2015-Mar-29 05:20 270 18 5.4 5.0 Light rain showers.
2015-Mar-29 04:50 260 23 5.4 6.0
2015-Mar-29 04:20 270 20 5.4 5.0 Light rain showers.
2015-Mar-29 03:50 250 25 5.4 6.0 Light rain showers.
2015-Mar-29 03:20 260 26 5.4 6.0 Light rain showers.
2015-Mar-29 02:50 260 26 5.4 6.0
2015-Mar-29 02:20 260 27 5.4 6.0
2015-Mar-29 01:50 260 26 4.9 6.0 Light rain showers.
2015-Mar-29 01:20 260 27 5.4 6.0 Light rain showers.
2015-Mar-29 00:50 260 27 5.4 6.0 Light rain showers.
2015-Mar-29 00:20 270 27 5.4 7.0 Light rain showers.
2015-Mar-28 23:50 270 27 5.4 6.0
2015-Mar-28 23:20 270 27 5.4 7.0 Light rain showers.
2015-Mar-28 22:50 270 27 5.4 7.0 Light rain showers.
2015-Mar-28 22:20 270 25 5.4 7.0 Light rain.
2015-Mar-28 21:50 240 19 3.8 7.0 Rain.
2015-Mar-28 21:20 230 19 gusting 39 2.1 7.0 Light rain. Mist.
2015-Mar-28 20:50 150 42 1.4 7.0 Light rain. Mist.
2015-Mar-28 20:20 150 47 gusting 57 0.9 6.0 Light rain.
2015-Mar-28 19:50 150 49 gusting 60 1.1 6.0 Light drizzle.
2015-Mar-28 19:20 160 50 gusting 60 3.2 6.0 Light drizzle.
2015-Mar-28 18:50 150 52 gusting 63 2.1 6.0 Light drizzle. Mist.
2015-Mar-28 18:20 150 57 gusting 69 1.6 6.0 Light rain.
2015-Mar-28 17:50 150 54 gusting 66 1.2 5.0 Light rain.
2015-Mar-28 17:20 150 55 gusting 72 1.2 5.0 Rain.
2015-Mar-28 16:50 150 57 gusting 73 1.2 5.0 Light rain.
2015-Mar-28 16:20 150 59 gusting 70 1.0 5.0 Light rain.
2015-Mar-28 15:50 150 57 gusting 67 1.3 5.0 Light rain.
2015-Mar-28 15:20 150 56 gusting 67 1.4 5.0 Light rain.
2015-Mar-28 14:50 150 52 gusting 63 1.7 5.0 Light rain. Mist.
2015-Mar-28 14:20 140 53 gusting 66 1.1 5.0 Light rain.
2015-Mar-28 13:50 150 47 gusting 61 2.5 5.0 Light rain. Mist.
2015-Mar-28 13:20 150 49 1.4 5.0 Light rain.
2015-Mar-28 12:50 150 46 gusting 56 5.4 7.0 Light rain showers.
2015-Mar-28 12:20 150 44 5.4 7.0 Light rain showers.
2015-Mar-28 11:50 150 43 5.4 7.0
2015-Mar-28 11:20 160 40 5.4 7.0
2015-Mar-28 10:50 170 39 5.4 7.0
2015-Mar-28 10:20 160 38 5.4 7.0